Wind_Speed
36 37 38 39 41 46 48 46 46 49 52 50 49 49 52 53 54 55 57 57 58 60 61 61 63 63 66 68 69 72 72 73
38 40 41 42 43 45 45 48 47 49 49 50 52 55 57 58 59 61 62 67 66 65 65 67 68 70 71 73 74 75 78 79
40 41 41 43 47 46 49 48 51 52 52 55 58 60 63 64 64 66 67 69 70 73 77 80 81 83 87 88 90 90 90 90
42 43 43 46 47 47 48 50 54 57 59 60 62 64 66 68 69 71 72 74 78 82 85 86 90 93 95 97 98 98 100 98
43 45 50 52 55 52 56 58 59 61 63 66 69 71 73 75 75 76 79 84 86 89 91 95 97 99 102 103 105 105 104 103
49 52 52 53 51 56 57 59 62 65 69 72 75 77 78 79 82 85 88 89 92 95 99 101 100 102 104 103 102 102 103 104
43 43 47 53 55 57 59 63 68 71 75 78 80 82 83 85 90 92 94 99 101 103 105 106 109 111 109 102 98 100 101 100
45 48 49 51 56 61 66 70 74 77 79 80 81 83 87 95 99 101 102 106 109 110 112 114 116 114 107 100 100 98 99 96
47 50 55 58 62 65 70 74 77 78 80 85 91 95 98 102 107 112 115 118 118 119 117 116 112 108 101 97 95 94 90 90
52 55 60 63 65 69 72 74 78 81 86 94 98 103 107 110 115 124 128 125 122 120 115 112 109 102 95 89 87 85 85 84
57 60 63 66 72 78 82 82 84 89 96 101 105 109 116 126 127 132 132 126 120 118 115 109 103 94 88 83 82 80 80 79
61 66 70 75 79 82 82 86 91 96 102 107 111 122 130 134 135 132 126 118 115 111 105 100 96 94 91 87 84 82 80 79
66 72 76 81 81 86 90 93 97 103 107 112 122 128 135 138 131 123 115 111 109 102 97 95 94 93 92 88 84 81 77 75
71 78 83 86 89 93 96 100 103 109 113 120 128 135 143 136 126 116 112 105 99 96 96 96 93 89 85 82 79 76 74 71
79 82 86 90 94 98 101 105 111 116 121 125 133 139 138 123 117 112 103 99 98 97 94 90 84 79 76 74 72 70 69 68
83 89 93 97 99 101 106 113 118 124 128 136 142 128 119 113 108 104 103 100 97 92 86 81 77 74 70 68 65 64 63 64
90 97 101 102 106 109 113 119 126 130 135 137 129 118 111 103 99 99 98 93 88 84 79 74 70 66 61 59 57 58 57 56
99 103 108 111 112 117 120 127 130 133 134 126 116 108 103 99 95 91 88 85 80 76 73 69 65 61 58 55 54 53 52 51
106 111 114 118 123 124 127 130 132 128 126 116 107 105 101 97 92 87 82 76 73 70 67 63 61 58 55 52 51 48 46 44
Wind_Direction
307 307 308 306 305 306 307 310 311 308 306 307 307 306 303 304 305 304 304 302 299 297 297 296 295 292 292 290 290 291 290 288
299 303 306 306 302 306 304 303 307 307 306 305 303 303 305 304 303 302 304 305 308 309 308 305 302 300 297 295 293 290 289 289
299 300 304 306 305 307 305 305 305 306 305 304 304 305 305 306 308 309 309 308 307 306 305 304 303 301 300 298 296 294 292 290
299 302 308 311 311 311 310 310 308 305 304 306 306 308 308 308 306 306 305 303 303 303 303 304 302 300 299 296 293 291 289 288
307 307 306 310 314 311 312 311 309 307 309 308 307 306 306 304 304 303 303 303 305 304 303 302 301 298 297 293 290 289 289 287
304 307 309 310 310 309 308 306 306 306 306 306 305 305 304 303 302 304 305 304 303 303 301 300 301 302 301 296 292 289 289 288
308 309 308 308 305 303 305 306 306 305 305 305 305 304 304 304 304 303 301 302 301 301 303 304 305 305 302 297 293 289 287 286
307 306 306 306 308 309 310 309 308 307 306 307 307 306 307 308 307 304 303 303 305 304 304 304 304 304 299 295 292 288 287 286
306 305 306 307 310 312 311 310 308 308 307 308 310 311 311 311 310 310 309 308 307 305 304 303 302 300 295 292 289 287 286 284
308 308 308 308 309 311 311 310 308 309 312 315 316 316 315 314 313 314 313 310 309 307 305 303 300 298 294 291 288 286 284 282
308 308 309 308 308 308 311 313 315 315 317 318 315 315 316 316 314 313 311 309 308 305 304 302 300 297 295 293 289 285 283 280
309 309 306 304 305 308 312 313 315 316 317 315 315 317 316 314 312 311 308 308 305 304 303 301 300 299 298 295 292 288 285 283
308 306 307 309 311 313 312 312 315 316 316 315 316 315 316 315 311 309 307 306 304 304 304 302 300 298 296 293 290 288 285 282
308 312 313 314 313 312 313 314 313 315 313 314 314 313 314 313 310 309 308 307 306 305 304 302 299 297 295 293 291 288 285 282
313 315 316 315 315 313 313 313 313 312 312 311 314 313 312 311 309 310 308 308 307 304 303 301 300 298 296 294 292 290 287 284
315 316 316 316 315 313 314 313 313 313 313 314 314 311 310 310 309 309 309 308 306 304 304 302 301 299 297 294 292 288 285 283
315 316 316 314 314 315 314 314 314 313 315 314 312 310 310 310 310 310 308 307 306 306 306 304 303 300 298 295 292 289 286 282
313 313 314 315 314 313 313 314 315 315 315 313 312 312 313 313 311 310 309 308 307 308 307 306 304 302 300 297 294 290 287 285
313 314 315 314 313 312 313 316 316 315 315 313 314 315 315 314 314 312 310 309 310 309 307 306 305 304 302 299 294 290 288 286
Height
10671 10668 10666 10665 10663 10659 10656 10651 10648 10643 10638 10633 10629 10624 10618 10612 10608 10602 10596 10592 10588 10584 10578 10572 10568 10564 10557 10553 10548 10542 10538 10535
10664 10662 10660 10659 10655 10651 10647 10642 10637 10632 10628 10623 10617 10611 10605 10599 10594 10588 10580 10572 10565 10559 10554 10548 10542 10538 10531 10526 10522 10518 10513 10507
10659 10656 10654 10650 10645 10640 10635 10630 10625 10620 10616 10610 10604 10597 10591 10582 10573 10565 10558 10553 10546 10540 10535 10529 10522 10516 10508 10500 10493 10490 10485 10479
10651 10647 10643 10638 10633 10628 10623 10618 10614 10608 10602 10596 10589 10582 10574 10567 10559 10551 10542 10535 10528 10520 10512 10505 10497 10489 10483 10473 10464 10458 10452 10448
10641 10637 10632 10627 10623 10617 10611 10605 10598 10591 10585 10579 10572 10566 10559 10549 10542 10533 10524 10513 10506 10497 10488 10479 10471 10461 10453 10443 10433 10423 10414 10410
10633 10628 10623 10618 10613 10607 10600 10594 10588 10581 10573 10565 10556 10547 10540 10532 10521 10513 10503 10493 10483 10475 10464 10454 10441 10428 10418 10407 10396 10386 10377 10368
10626 10621 10616 10610 10604 10598 10591 10583 10575 10565 10556 10547 10539 10530 10521 10512 10500 10490 10481 10470 10460 10448 10434 10422 10408 10396 10383 10373 10362 10351 10343 10335
10619 10614 10608 10601 10593 10585 10577 10568 10558 10548 10538 10528 10519 10510 10500 10488 10474 10464 10454 10441 10428 10415 10402 10388 10375 10361 10349 10339 10326 10317 10308 10301
10609 10603 10596 10588 10580 10572 10562 10553 10542 10533 10523 10512 10500 10488 10476 10461 10446 10431 10418 10405 10392 10378 10365 10351 10335 10324 10314 10304 10292 10282 10275 10269
10599 10590 10582 10575 10566 10557 10548 10538 10527 10516 10504 10492 10476 10460 10446 10433 10417 10398 10382 10366 10351 10336 10323 10309 10298 10289 10280 10271 10262 10252 10244 10238
10586 10577 10568 10559 10551 10542 10531 10520 10508 10495 10480 10465 10451 10437 10420 10402 10384 10367 10347 10329 10314 10299 10285 10272 10257 10251 10245 10238 10230 10223 10215 10209
10572 10562 10553 10545 10535 10526 10514 10500 10486 10472 10456 10439 10422 10405 10388 10369 10352 10335 10316 10299 10281 10265 10252 10238 10225 10214 10207 10203 10196 10189 10182 10176
10559 10549 10538 10526 10514 10504 10491 10476 10461 10447 10431 10415 10397 10377 10360 10339 10319 10300 10283 10267 10249 10234 10221 10209 10196 10184 10174 10168 10163 10157 10152 10147
10542 10531 10520 10507 10495 10481 10465 10451 10437 10422 10407 10390 10371 10351 10328 10304 10284 10263 10247 10233 10217 10203 10190 10177 10166 10155 10146 10137 10131 10125 10121 10119
10526 10513 10500 10486 10473 10456 10442 10426 10411 10395 10378 10361 10342 10318 10294 10270 10249 10230 10215 10201 10186 10172 10160 10149 10137 10127 10119 10109 10103 10097 10092 10090
10504 10491 10478 10464 10451 10436 10418 10402 10385 10367 10348 10326 10303 10280 10260 10241 10223 10204 10186 10170 10155 10143 10131 10121 10111 10101 10093 10085 10080 10074 10070 10065
10481 10467 10453 10440 10425 10410 10394 10376 10358 10335 10316 10290 10265 10244 10227 10211 10194 10176 10159 10143 10127 10114 10105 10095 10084 10077 10072 10065 10059 10052 10049 10047
10459 10446 10430 10415 10399 10384 10367 10350 10328 10303 10280 10254 10233 10214 10196 10180 10166 10150 10134 10119 10105 10092 10081 10072 10064 10058 10051 10045 10039 10034 10031 10029
10433 10418 10402 10386 10371 10355 10337 10318 10297 10272 10247 10223 10204 10186 10169 10152 10136 10123 10110 10096 10083 10071 10062 10055 10046 10039 10034 10027 10020 10017 10015 10013